,,PA_Meas_PMT16A,,PR_Meas_QMR101_102,,RH_Meas_QMH101,,SR_Meas_QMS101,,TA_Meas_QMH101,,GenWind,,GenWind,
time,status,PA,status,PR,status,RH,status,SR,status,TA,status,DirAvg,status,SpdAvg,
2009-11-14, 00:00:04,VALID,918.415,VALID,0.2,VALID,97.9075,VALID,0,VALID,19.1958,VALID,161,VALID,0.699219,
2009-11-14, 00:01:04,VALID,918.424,VALID,0,VALID,97.8999,VALID,0,VALID,19.1749,VALID,161,VALID,0.329297,
2009-11-14, 00:02:04,VALID,918.371,VALID,0,VALID,97.9304,VALID,0,VALID,19.1749,VALID,161,VALID,0.301562,
2009-11-14, 00:03:04,VALID,918.378,VALID,0,VALID,97.9152,VALID,0,VALID,19.1944,VALID,161,VALID,0.345313,
2009-11-14, 00:04:04,VALID,918.372,VALID,0,VALID,97.8923,VALID,0,VALID,19.1944,VALID,161,VALID,0.408594,
2009-11-14, 00:05:04,VALID,918.334,VALID,0.2,VALID,97.9228,VALID,0,VALID,19.1944,VALID,161,VALID,0.224609,
2009-11-14, 00:06:04,VALID,918.318,VALID,0,VALID,97.9456,VALID,0,VALID,19.2139,VALID,161,VALID,0.238281,
2009-11-14, 00:07:04,VALID,918.287,VALID,0,VALID,97.9304,VALID,0,VALID,19.2139,VALID,161,VALID,0.0664063,
2009-11-14, 00:08:04,VALID,918.282,VALID,0,VALID,97.8999,VALID,0,VALID,19.2139,VALID,161,VALID,0,
2009-11-14, 00:09:04,VALID,918.253,VALID,0,VALID,97.9075,VALID,0.107441,VALID,19.2124,VALID,161,VALID,0,
2009-11-14, 00:10:04,VALID,918.27,VALID,0,VALID,97.9228,VALID,0,VALID,19.2124,VALID,161,VALID,0,
2009-11-14, 00:11:04,VALID,918.252,VALID,0,VALID,97.9152,VALID,0,VALID,19.1734,VALID,161,VALID,0,
2009-11-14, 00:12:04,VALID,918.233,VALID,0,VALID,97.9075,VALID,0.107441,VALID,19.133,VALID,161,VALID,0,
2009-11-14, 00:13:04,VALID,918.233,VALID,0.2,VALID,97.9075,VALID,0,VALID,19.1344,VALID,161,VALID,0.0789063,
2009-11-14, 00:14:04,VALID,918.217,VALID,0,VALID,97.9152,VALID,0,VALID,19.1344,VALID,161,VALID,0.24375,
2009-11-14, 00:15:04,VALID,918.187,VALID,0,VALID,97.9075,VALID,0.107441,VALID,19.1344,VALID,161,VALID,0.432422,
2009-11-14, 00:16:04,VALID,918.216,VALID,0,VALID,97.8999,VALID,0,VALID,19.0954,VALID,161,VALID,0.519922,
2009-11-14, 00:17:04,VALID,918.198,VALID,0.2,VALID,97.8923,VALID,0,VALID,19.0759,VALID,161,VALID,0.511328,
2009-11-14, 00:18:04,VALID,918.202,VALID,0,VALID,97.8923,VALID,0.107441,VALID,19.0564,VALID,161,VALID,0.734375,
2009-11-14, 00:19:04,VALID,918.183,VALID,0,VALID,97.938,VALID,0.107441,VALID,19.0564,VALID,161,VALID,0.935156,
2009-11-14, 00:20:04,VALID,918.147,VALID,0,VALID,97.938,VALID,0,VALID,19.0564,VALID,161,VALID,0.782031,
2009-11-14, 00:21:04,VALID,918.14,VALID,0,VALID,97.9152,VALID,0,VALID,19.0564,VALID,161,VALID,0.874219,
2009-11-14, 00:22:04,VALID,918.127,VALID,0.2,VALID,97.9304,VALID,0,VALID,19.0369,VALID,161,VALID,0.758984,
2009-11-14, 00:23:04,VALID,918.113,VALID,0,VALID,97.938,VALID,0,VALID,19.0369,VALID,161,VALID,0.478516,
2009-11-14, 00:24:04,VALID,918.109,VALID,0,VALID,97.9152,VALID,0.107441,VALID,19.0369,VALID,161,VALID,0.401172,
2009-11-14, 00:25:04,VALID,918.084,VALID,0,VALID,97.938,VALID,0,VALID,19.0384,VALID,161,VALID,0.502344,
2009-11-14, 00:26:04,VALID,918.029,VALID,0.2,VALID,97.938,VALID,0.107441,VALID,19.0369,VALID,161,VALID,0.400391,
2009-11-14, 00:27:04,VALID,918.058,VALID,0,VALID,97.9304,VALID,0.107441,VALID,19.0175,VALID,161,VALID,0.526172,
2009-11-14, 00:28:04,VALID,918.036,VALID,0,VALID,97.9456,VALID,0,VALID,19.0369,VALID,161,VALID,0.830859,
2009-11-14, 00:29:04,VALID,918.02,VALID,0,VALID,97.938,VALID,0,VALID,18.998,VALID,161,VALID,0.855859,
2009-11-14, 00:30:04,VALID,917.99,VALID,0.2,VALID,97.9304,VALID,0.107441,VALID,19.0175,VALID,161,VALID,0.669531,
2009-11-14, 00:31:04,VALID,917.979,VALID,0,VALID,97.9456,VALID,0,VALID,18.998,VALID,161,VALID,0.680469,
2009-11-14, 00:32:04,VALID,917.976,VALID,0,VALID,97.9456,VALID,0,VALID,19.0384,VALID,161,VALID,0.675781,
2009-11-14, 00:33:04,VALID,917.938,VALID,0,VALID,97.938,VALID,0.107441,VALID,18.998,VALID,161,VALID,0.7125,
2009-11-14, 00:34:04,VALID,917.956,VALID,0.2,VALID,97.938,VALID,0.107441,VALID,19.0369,VALID,161,VALID,0.820703,
2009-11-14, 00:35:04,VALID,917.935,VALID,0,VALID,97.9609,VALID,0.107441,VALID,19.0175,VALID,161,VALID,0.855469,
2009-11-14, 00:36:04,VALID,917.919,VALID,0,VALID,97.9609,VALID,0.107441,VALID,19.0369,VALID,161,VALID,0.697656,
2009-11-14, 00:37:04,VALID,917.891,VALID,0,VALID,97.9456,VALID,0.107441,VALID,19.0564,VALID,161,VALID,0.725,
2009-11-14, 00:38:04,VALID,917.877,VALID,0.2,VALID,97.9609,VALID,0,VALID,19.0369,VALID,161,VALID,0.734766,
2009-11-14, 00:39:04,VALID,917.857,VALID,0,VALID,97.9456,VALID,0,VALID,19.0579,VALID,161,VALID,0.897656,
2009-11-14, 00:40:04,VALID,917.836,VALID,0,VALID,97.9609,VALID,0,VALID,19.0774,VALID,161,VALID,0.553125,
2009-11-14, 00:41:04,VALID,917.804,VALID,0.2,VALID,97.9456,VALID,0,VALID,19.0579,VALID,161,VALID,0.703125,
2009-11-14, 00:42:04,VALID,917.803,VALID,0,VALID,97.9685,VALID,0,VALID,19.0579,VALID,161,VALID,0.645703,
2009-11-14, 00:43:04,VALID,917.773,VALID,0,VALID,97.938,VALID,0,VALID,19.0774,VALID,161,VALID,0.757422,
2009-11-14, 00:44:04,VALID,917.733,VALID,0.2,VALID,97.938,VALID,0,VALID,19.0774,VALID,161,VALID,0.780469,
2009-11-14, 00:45:04,VALID,917.724,VALID,0,VALID,97.9609,VALID,0,VALID,19.0969,VALID,161,VALID,0.652734,
2009-11-14, 00:46:04,VALID,917.697,VALID,0,VALID,97.9685,VALID,0,VALID,19.1164,VALID,161,VALID,0.562891,
2009-11-14, 00:47:04,VALID,917.675,VALID,0,VALID,97.9609,VALID,0,VALID,19.0969,VALID,161,VALID,0.852734,
2009-11-14, 00:48:04,VALID,917.662,VALID,0.2,VALID,97.9609,VALID,0,VALID,19.1359,VALID,161,VALID,0.603906,
2009-11-14, 00:49:04,VALID,917.642,VALID,0,VALID,97.9456,VALID,0,VALID,19.1359,VALID,161,VALID,0.589844,
2009-11-14, 00:50:04,VALID,917.633,VALID,0,VALID,97.938,VALID,0,VALID,19.1359,VALID,161,VALID,0.567969,
2009-11-14, 00:51:04,VALID,917.606,VALID,0.2,VALID,97.9533,VALID,0,VALID,19.1359,VALID,161,VALID,0.210547,
2009-11-14, 00:52:04,VALID,917.577,VALID,0,VALID,97.9533,VALID,0,VALID,19.1359,VALID,161,VALID,0.227344,
2009-11-14, 00:53:04,VALID,917.573,VALID,0,VALID,97.9533,VALID,0,VALID,19.1359,VALID,161,VALID,0.201953,
2009-11-14, 00:54:04,VALID,917.568,VALID,0,VALID,97.9456,VALID,0,VALID,19.1164,VALID,161,VALID,0.115234,
2009-11-14, 00:55:04,VALID,917.545,VALID,0.2,VALID,97.9609,VALID,0,VALID,19.1359,VALID,161,VALID,0.172656,
2009-11-14, 00:56:04,VALID,917.539,VALID,0,VALID,97.9456,VALID,0,VALID,19.1359,VALID,161,VALID,0.300781,
2009-11-14, 00:57:04,VALID,917.551,VALID,0,VALID,97.938,VALID,0,VALID,19.1164,VALID,161,VALID,0.337109,
2009-11-14, 00:58:04,VALID,917.561,VALID,0.2,VALID,97.9456,VALID,0,VALID,19.1359,VALID,161,VALID,0.337891,
2009-11-14, 00:59:04,VALID,917.517,VALID,0,VALID,97.9533,VALID,0,VALID,19.1554,VALID,161,VALID,0.217578,
2009-11-14, 01:00:04,VALID,917.503,VALID,0,VALID,97.9533,VALID,0,VALID,19.1749,VALID,161,VALID,0.352734,
2009-11-14, 01:01:04,VALID,917.482,VALID,0,VALID,97.9456,VALID,0,VALID,19.1944,VALID,161,VALID,0.467187,
2009-11-14, 01:02:04,VALID,917.474,VALID,0.2,VALID,97.9685,VALID,0,VALID,19.1944,VALID,161,VALID,0.374219,
2009-11-14, 01:03:04,VALID,917.485,VALID,0,VALID,97.938,VALID,0,VALID,19.1944,VALID,161,VALID,0.541406,
2009-11-14, 01:04:04,VALID,917.454,VALID,0,VALID,97.9533,VALID,0,VALID,19.1539,VALID,161,VALID,0.590234,
2009-11-14, 01:05:04,VALID,917.454,VALID,0,VALID,97.938,VALID,0,VALID,19.1749,VALID,161,VALID,0.448047,
2009-11-14, 01:06:04,VALID,917.41,VALID,0.2,VALID,97.9533,VALID,0,VALID,19.1554,VALID,161,VALID,0.747266,
2009-11-14, 01:07:04,VALID,917.456,VALID,0,VALID,97.9609,VALID,0,VALID,19.1749,VALID,161,VALID,0.493359,
2009-11-14, 01:08:04,VALID,917.437,VALID,0,VALID,97.9609,VALID,0,VALID,19.1749,VALID,161,VALID,0.762891,
2009-11-14, 01:09:04,VALID,917.43,VALID,0.2,VALID,97.9609,VALID,0,VALID,19.1944,VALID,161,VALID,0.622266,
2009-11-14, 01:10:04,VALID,917.432,VALID,0,VALID,97.9456,VALID,0,VALID,19.1749,VALID,161,VALID,0.617188,
2009-11-14, 01:11:04,VALID,917.449,VALID,0,VALID,97.9456,VALID,0,VALID,19.1344,VALID,161,VALID,0.786328,
2009-11-14, 01:12:04,VALID,917.426,VALID,0,VALID,97.938,VALID,0,VALID,19.1554,VALID,161,VALID,0.989844,
2009-11-14, 01:13:04,VALID,917.429,VALID,0.2,VALID,97.938,VALID,0,VALID,19.1749,VALID,161,VALID,0.955469,
2009-11-14, 01:14:04,VALID,917.409,VALID,0,VALID,97.9456,VALID,0,VALID,19.1554,VALID,161,VALID,0.750781,
2009-11-14, 01:15:04,VALID,917.413,VALID,0,VALID,97.9685,VALID,0,VALID,19.1554,VALID,161,VALID,0.844531,
2009-11-14, 01:16:04,VALID,917.382,VALID,0,VALID,97.9685,VALID,0,VALID,19.1554,VALID,161,VALID,0.936719,
2009-11-14, 01:17:04,VALID,917.365,VALID,0,VALID,97.9685,VALID,0,VALID,19.1554,VALID,161,VALID,0.958594,
2009-11-14, 01:18:04,VALID,917.348,VALID,0.2,VALID,97.9685,VALID,0,VALID,19.1554,VALID,161,VALID,0.967969,
2009-11-14, 01:19:04,VALID,917.355,VALID,0,VALID,97.9533,VALID,0,VALID,19.1344,VALID,160,VALID,0.684766,
2009-11-14, 01:20:04,VALID,917.315,VALID,0,VALID,97.9685,VALID,0,VALID,19.1344,VALID,160,VALID,0.913281,
2009-11-14, 01:21:04,VALID,917.303,VALID,0,VALID,97.9609,VALID,0,VALID,19.1554,VALID,160,VALID,0.923047,
2009-11-14, 01:22:04,VALID,917.27,VALID,0,VALID,97.9533,VALID,0,VALID,19.1359,VALID,160,VALID,0.770703,
2009-11-14, 01:23:04,VALID,917.254,VALID,0.2,VALID,97.9609,VALID,0,VALID,19.1149,VALID,160,VALID,0.436719,
2009-11-14, 01:24:04,VALID,917.229,VALID,0,VALID,97.9533,VALID,0.107441,VALID,19.1149,VALID,160,VALID,0.721875,
2009-11-14, 01:25:04,VALID,917.208,VALID,0,VALID,97.9838,VALID,0.107441,VALID,19.1344,VALID,160,VALID,0.120703,
2009-11-14, 01:26:04,VALID,917.186,VALID,0,VALID,97.9609,VALID,0,VALID,19.1344,VALID,160,VALID,0.151953,
2009-11-14, 01:27:04,VALID,917.158,VALID,0,VALID,97.9685,VALID,0,VALID,19.1344,VALID,160,VALID,0.299609,
2009-11-14, 01:28:04,VALID,917.157,VALID,0.2,VALID,97.9838,VALID,0,VALID,19.1344,VALID,160,VALID,0.426172,
2009-11-14, 01:29:04,VALID,917.128,VALID,0,VALID,97.9609,VALID,0,VALID,19.1359,VALID,160,VALID,0.258594,
2009-11-14, 01:30:04,VALID,917.095,VALID,0,VALID,97.9761,VALID,0,VALID,19.1164,VALID,160,VALID,0.0429688,
2009-11-14, 01:31:04,VALID,917.089,VALID,0,VALID,97.9838,VALID,0,VALID,19.1554,VALID,160,VALID,0,
2009-11-14, 01:32:04,VALID,917.063,VALID,0,VALID,97.9609,VALID,0,VALID,19.1344,VALID,160,VALID,0,
2009-11-14, 01:33:04,VALID,917.072,VALID,0,VALID,97.9533,VALID,0,VALID,19.1749,VALID,160,VALID,0.0429688,
2009-11-14, 01:34:04,VALID,917.064,VALID,0,VALID,97.9609,VALID,0,VALID,19.1734,VALID,160,VALID,0,
2009-11-14, 01:35:04,VALID,917.028,VALID,0,VALID,97.9533,VALID,0,VALID,19.1929,VALID,160,VALID,0,
2009-11-14, 01:36:04,VALID,917.011,VALID,0.2,VALID,97.9609,VALID,0,VALID,19.2124,VALID,160,VALID,0,
2009-11-14, 01:37:04,VALID,917.007,VALID,0,VALID,97.9685,VALID,0,VALID,19.2124,VALID,160,VALID,0,
2009-11-14, 01:38:04,VALID,917.007,VALID,0,VALID,97.9533,VALID,0,VALID,19.2124,VALID,160,VALID,0,
2009-11-14, 01:39:04,VALID,916.994,VALID,0,VALID,97.9685,VALID,0,VALID,19.2124,VALID,160,VALID,0,
2009-11-14, 01:40:04,VALID,916.961,VALID,0,VALID,97.9456,VALID,0,VALID,19.1929,VALID,160,VALID,0,
2009-11-14, 01:41:04,VALID,916.951,VALID,0,VALID,97.9456,VALID,0,VALID,19.1944,VALID,160,VALID,0.351563,
2009-11-14, 01:42:04,VALID,916.938,VALID,0,VALID,97.9533,VALID,0,VALID,19.1149,VALID,160,VALID,0.241406,
2009-11-14, 01:43:04,VALID,916.917,VALID,0,VALID,97.9533,VALID,0,VALID,19.0759,VALID,160,VALID,0.253906,
2009-11-14, 01:44:04,VALID,916.923,VALID,0,VALID,97.9609,VALID,0.107441,VALID,19.0759,VALID,160,VALID,0.294922,
2009-11-14, 01:45:04,VALID,916.907,VALID,0.2,VALID,97.9914,VALID,0.107441,VALID,19.0954,VALID,160,VALID,0.506641,
2009-11-14, 01:46:04,VALID,916.927,VALID,0,VALID,97.9838,VALID,0,VALID,19.0954,VALID,160,VALID,0.576953,
2009-11-14, 01:47:04,VALID,916.905,VALID,0,VALID,97.9685,VALID,0,VALID,19.0954,VALID,160,VALID,0.601172,
2009-11-14, 01:48:04,VALID,916.899,VALID,0,VALID,97.9609,VALID,0,VALID,19.1149,VALID,160,VALID,0.683984,
2009-11-14, 01:49:04,VALID,916.912,VALID,0,VALID,97.9609,VALID,0,VALID,19.0954,VALID,160,VALID,0.789844,
2009-11-14, 01:50:04,VALID,916.937,VALID,0,VALID,97.9914,VALID,0,VALID,19.1149,VALID,160,VALID,0.791797,
2009-11-14, 01:51:04,VALID,916.864,VALID,0,VALID,97.9838,VALID,0,VALID,19.0954,VALID,160,VALID,0.659766,
2009-11-14, 01:52:04,VALID,916.877,VALID,0,VALID,97.9533,VALID,0.107441,VALID,19.0954,VALID,160,VALID,0.354297,
2009-11-14, 01:53:04,VALID,916.875,VALID,0,VALID,97.9838,VALID,0,VALID,19.0759,VALID,160,VALID,0.265625,
2009-11-14, 01:54:04,VALID,916.852,VALID,0,VALID,97.9533,VALID,0,VALID,19.0774,VALID,160,VALID,0.330469,
2009-11-14, 01:55:04,VALID,916.856,VALID,0,VALID,97.9838,VALID,0.107441,VALID,19.0564,VALID,160,VALID,0.376172,
2009-11-14, 01:56:04,VALID,916.843,VALID,0.2,VALID,97.9685,VALID,0,VALID,19.0564,VALID,160,VALID,0.345703,
2009-11-14, 01:57:04,VALID,916.834,VALID,0,VALID,97.9761,VALID,0,VALID,19.0774,VALID,160,VALID,0.402734,
2009-11-14, 01:58:04,VALID,916.817,VALID,0,VALID,97.9685,VALID,0,VALID,19.0759,VALID,160,VALID,0.473828,
2009-11-14, 01:59:04,VALID,916.802,VALID,0,VALID,97.9838,VALID,0.107441,VALID,19.0759,VALID,160,VALID,0.526953,
2009-11-14, 02:00:04,VALID,916.783,VALID,0,VALID,97.9838,VALID,0,VALID,19.1164,VALID,160,VALID,0.55625,
2009-11-14, 02:01:04,VALID,916.789,VALID,0,VALID,97.9914,VALID,0.107441,VALID,19.1164,VALID,160,VALID,0.244141,
2009-11-14, 02:02:04,VALID,916.782,VALID,0,VALID,98.0066,VALID,0,VALID,19.0954,VALID,160,VALID,0.299609,
2009-11-14, 02:03:04,VALID,916.784,VALID,0,VALID,97.999,VALID,0,VALID,19.1149,VALID,160,VALID,0.360547,
2009-11-14, 02:04:04,VALID,916.777,VALID,0,VALID,97.9685,VALID,0.107441,VALID,19.0954,VALID,160,VALID,0.230078,
2009-11-14, 02:05:04,VALID,916.792,VALID,0,VALID,97.9914,VALID,0,VALID,19.0954,VALID,160,VALID,0.351953,
2009-11-14, 02:06:04,VALID,916.774,VALID,0,VALID,97.9838,VALID,0,VALID,19.0954,VALID,160,VALID,0.349219,
2009-11-14, 02:07:04,VALID,916.742,VALID,0,VALID,97.9761,VALID,0,VALID,19.0759,VALID,160,VALID,0.492969,
2009-11-14, 02:08:04,VALID,916.751,VALID,0,VALID,97.9838,VALID,0,VALID,19.0369,VALID,160,VALID,0.485547,
2009-11-14, 02:09:04,VALID,916.728,VALID,0,VALID,97.9609,VALID,0.107441,VALID,19.0175,VALID,160,VALID,0.395703,
2009-11-14, 02:10:04,VALID,916.713,VALID,0,VALID,98.0066,VALID,0.107441,VALID,19.0175,VALID,160,VALID,0.314063,
2009-11-14, 02:11:04,VALID,916.731,VALID,0,VALID,97.999,VALID,0.107441,VALID,19.0369,VALID,160,VALID,0.394141,
2009-11-14, 02:12:04,VALID,916.709,VALID,0,VALID,97.9761,VALID,0,VALID,19.0579,VALID,160,VALID,0.505469,
2009-11-14, 02:13:04,VALID,916.704,VALID,0,VALID,97.9761,VALID,0,VALID,19.0384,VALID,160,VALID,0.465234,
2009-11-14, 02:14:04,VALID,916.7,VALID,0,VALID,97.9838,VALID,0,VALID,19.0369,VALID,160,VALID,0.548437,
2009-11-14, 02:15:04,VALID,916.684,VALID,0.2,VALID,97.9914,VALID,0,VALID,19.0564,VALID,160,VALID,0.608203,
2009-11-14, 02:16:04,VALID,916.658,VALID,0,VALID,97.9914,VALID,0,VALID,19.0564,VALID,160,VALID,0.274609,
2009-11-14, 02:17:05,VALID,916.634,VALID,0,VALID,98.0066,VALID,0.107441,VALID,19.0564,VALID,160,VALID,0.36875,
2009-11-14, 02:18:05,VALID,916.621,VALID,0,VALID,97.999,VALID,0,VALID,19.0759,VALID,160,VALID,0.244922,
2009-11-14, 02:19:05,VALID,916.617,VALID,0,VALID,97.9914,VALID,0,VALID,19.0759,VALID,160,VALID,0.000390625,
2009-11-14, 02:20:05,VALID,916.584,VALID,0,VALID,97.9838,VALID,0,VALID,19.0759,VALID,160,VALID,0.231641,
2009-11-14, 02:21:05,VALID,916.606,VALID,0,VALID,97.9914,VALID,0,VALID,19.0969,VALID,160,VALID,0.273828,
2009-11-14, 02:22:05,VALID,916.582,VALID,0,VALID,97.9761,VALID,0,VALID,19.0969,VALID,160,VALID,0.285156,
2009-11-14, 02:23:05,VALID,916.575,VALID,0,VALID,97.9761,VALID,0,VALID,19.0774,VALID,160,VALID,0.164453,
2009-11-14, 02:24:05,VALID,916.551,VALID,0,VALID,97.9761,VALID,0,VALID,19.0774,VALID,160,VALID,0.286719,
2009-11-14, 02:25:05,VALID,916.535,VALID,0.2,VALID,97.9838,VALID,0,VALID,19.0384,VALID,160,VALID,0.517969,
2009-11-14, 02:26:05,VALID,916.564,VALID,0,VALID,97.9685,VALID,0,VALID,18.9994,VALID,160,VALID,0.517969,
2009-11-14, 02:27:05,VALID,916.529,VALID,0,VALID,97.9838,VALID,0,VALID,19.0189,VALID,160,VALID,0.476172,
2009-11-14, 02:28:05,VALID,916.552,VALID,0,VALID,98.0066,VALID,0,VALID,19.0189,VALID,160,VALID,0.504297,
2009-11-14, 02:29:05,VALID,916.554,VALID,0,VALID,98.0066,VALID,0,VALID,19.0384,VALID,160,VALID,0.568359,
2009-11-14, 02:30:05,VALID,916.528,VALID,0,VALID,97.999,VALID,0,VALID,19.0593,VALID,160,VALID,0.638281,
2009-11-14, 02:31:05,VALID,916.518,VALID,0,VALID,97.9838,VALID,0,VALID,19.0384,VALID,160,VALID,0.590234,
2009-11-14, 02:32:05,VALID,916.514,VALID,0,VALID,98.0066,VALID,0,VALID,19.0384,VALID,160,VALID,0.546094,
2009-11-14, 02:33:05,VALID,916.489,VALID,0,VALID,98.0143,VALID,0,VALID,19.0579,VALID,160,VALID,0.63125,
2009-11-14, 02:34:05,VALID,916.487,VALID,0,VALID,97.9914,VALID,0,VALID,19.0384,VALID,160,VALID,0.597656,
2009-11-14, 02:35:05,VALID,916.475,VALID,0,VALID,97.999,VALID,0,VALID,19.0579,VALID,160,VALID,0.270312,
2009-11-14, 02:36:05,VALID,916.429,VALID,0,VALID,97.9838,VALID,0,VALID,19.0579,VALID,160,VALID,0.306641,
2009-11-14, 02:37:05,VALID,916.413,VALID,0,VALID,97.9914,VALID,0,VALID,19.0983,VALID,160,VALID,0.183984,
2009-11-14, 02:38:05,VALID,916.396,VALID,0,VALID,97.999,VALID,0,VALID,19.0774,VALID,160,VALID,0.198047,
2009-11-14, 02:39:05,VALID,916.38,VALID,0,VALID,97.9838,VALID,0,VALID,19.0969,VALID,160,VALID,0.0117188,
2009-11-14, 02:40:05,VALID,916.351,VALID,0,VALID,97.9838,VALID,0,VALID,19.1164,VALID,160,VALID,0.198437,
2009-11-14, 02:41:05,VALID,916.353,VALID,0,VALID,98.0066,VALID,0,VALID,19.1164,VALID,160,VALID,0.246484,
2009-11-14, 02:42:05,VALID,916.343,VALID,0,VALID,98.0066,VALID,0,VALID,19.1164,VALID,160,VALID,0.164063,
2009-11-14, 02:43:05,VALID,916.331,VALID,0,VALID,97.999,VALID,0,VALID,19.1359,VALID,160,VALID,0,
2009-11-14, 02:44:05,VALID,916.337,VALID,0,VALID,97.9761,VALID,0,VALID,19.1359,VALID,160,VALID,0.0769531,
2009-11-14, 02:45:05,VALID,916.31,VALID,0,VALID,98.0066,VALID,0,VALID,19.1359,VALID,160,VALID,0.182812,
2009-11-14, 02:46:05,VALID,916.296,VALID,0,VALID,98.0143,VALID,0,VALID,19.1359,VALID,160,VALID,0.3,
2009-11-14, 02:47:05,VALID,916.3,VALID,0,VALID,97.9761,VALID,0,VALID,19.0969,VALID,160,VALID,0.135547,
2009-11-14, 02:48:05,VALID,916.315,VALID,0,VALID,97.9838,VALID,0,VALID,19.0384,VALID,160,VALID,0.188672,
2009-11-14, 02:49:05,VALID,916.292,VALID,0,VALID,97.9761,VALID,0,VALID,19.0189,VALID,160,VALID,0.0351563,
2009-11-14, 02:50:05,VALID,916.294,VALID,0,VALID,97.9609,VALID,0,VALID,18.9994,VALID,160,VALID,0,
2009-11-14, 02:51:05,VALID,916.278,VALID,0,VALID,97.9761,VALID,0,VALID,18.9604,VALID,160,VALID,0.344141,
2009-11-14, 02:52:05,VALID,916.269,VALID,0,VALID,98.0219,VALID,0,VALID,18.9214,VALID,160,VALID,0.483984,
2009-11-14, 02:53:05,VALID,916.265,VALID,0,VALID,97.9838,VALID,0,VALID,18.92,VALID,160,VALID,0.446094,
2009-11-14, 02:54:05,VALID,916.229,VALID,0,VALID,98.0371,VALID,0,VALID,18.9395,VALID,160,VALID,0.591797,
2009-11-14, 02:55:05,VALID,916.223,VALID,0,VALID,98.0143,VALID,0,VALID,18.998,VALID,160,VALID,0.663281,
2009-11-14, 02:56:05,VALID,916.204,VALID,0,VALID,98.0066,VALID,0,VALID,19.0175,VALID,160,VALID,0.596875,
2009-11-14, 02:57:05,VALID,916.195,VALID,0,VALID,97.9914,VALID,0,VALID,19.0369,VALID,160,VALID,0.757031,
2009-11-14, 02:58:05,VALID,916.191,VALID,0,VALID,97.999,VALID,0,VALID,19.0369,VALID,160,VALID,0.631641,
2009-11-14, 02:59:05,VALID,916.195,VALID,0,VALID,98.0066,VALID,0.107441,VALID,19.0369,VALID,160,VALID,0.669141,
2009-11-14, 03:00:05,VALID,916.156,VALID,0,VALID,98.0066,VALID,0,VALID,19.0384,VALID,160,VALID,0.726172,
2009-11-14, 03:01:05,VALID,916.146,VALID,0,VALID,97.999,VALID,0,VALID,19.0175,VALID,160,VALID,0.522266,
2009-11-14, 03:02:05,VALID,916.128,VALID,0,VALID,97.999,VALID,0.107441,VALID,19.0175,VALID,160,VALID,0.684375,
2009-11-14, 03:03:05,VALID,916.15,VALID,0,VALID,97.999,VALID,0.107441,VALID,18.9965,VALID,160,VALID,0.557031,
2009-11-14, 03:04:05,VALID,916.156,VALID,0,VALID,97.999,VALID,0,VALID,18.998,VALID,160,VALID,0.459375,
2009-11-14, 03:05:05,VALID,916.143,VALID,0,VALID,98.0066,VALID,0.107441,VALID,18.9785,VALID,160,VALID,0.455469,
2009-11-14, 03:06:05,VALID,916.129,VALID,0,VALID,97.9914,VALID,0,VALID,18.9785,VALID,160,VALID,0.462109,
2009-11-14, 03:07:05,VALID,916.106,VALID,0,VALID,98.0295,VALID,0,VALID,18.959,VALID,160,VALID,0.676562,
2009-11-14, 03:08:05,VALID,916.125,VALID,0,VALID,98.0143,VALID,0.107441,VALID,18.9785,VALID,160,VALID,0.583203,
2009-11-14, 03:09:05,VALID,916.065,VALID,0,VALID,98.0295,VALID,0,VALID,18.9799,VALID,160,VALID,0.536719,
2009-11-14, 03:10:05,VALID,916.069,VALID,0,VALID,97.9914,VALID,0,VALID,18.9799,VALID,160,VALID,0.557031,
2009-11-14, 03:11:05,VALID,916.034,VALID,0,VALID,98.0219,VALID,0,VALID,18.9994,VALID,160,VALID,0.634375,
2009-11-14, 03:12:05,VALID,916.028,VALID,0,VALID,97.9838,VALID,0,VALID,18.9994,VALID,160,VALID,0.580859,
2009-11-14, 03:13:05,VALID,915.998,VALID,0,VALID,97.999,VALID,0,VALID,18.9799,VALID,160,VALID,0.673828,
2009-11-14, 03:14:05,VALID,915.985,VALID,0,VALID,98.0219,VALID,0,VALID,18.9994,VALID,160,VALID,0.670703,
2009-11-14, 03:15:05,VALID,915.938,VALID,0,VALID,98.0066,VALID,0,VALID,18.998,VALID,160,VALID,0.555859,
2009-11-14, 03:16:05,VALID,915.953,VALID,0,VALID,97.999,VALID,0,VALID,18.9994,VALID,160,VALID,0.526953,
2009-11-14, 03:17:05,VALID,915.941,VALID,0,VALID,98.0219,VALID,0,VALID,18.9799,VALID,160,VALID,0.532812,
2009-11-14, 03:18:05,VALID,915.901,VALID,0,VALID,98.0143,VALID,0,VALID,18.9799,VALID,160,VALID,0.491797,
2009-11-14, 03:19:05,VALID,915.879,VALID,0,VALID,98.0295,VALID,0,VALID,18.9799,VALID,160,VALID,0.463281,
2009-11-14, 03:20:05,VALID,915.85,VALID,0,VALID,98.0143,VALID,0,VALID,18.9799,VALID,160,VALID,0.295703,
2009-11-14, 03:21:05,VALID,915.851,VALID,0,VALID,98.0295,VALID,0,VALID,19.0008,VALID,160,VALID,0.165234,
2009-11-14, 03:22:05,VALID,915.823,VALID,0,VALID,98.0143,VALID,0,VALID,18.9604,VALID,160,VALID,0.302344,
2009-11-14, 03:23:05,VALID,915.804,VALID,0,VALID,98.0066,VALID,0,VALID,18.9604,VALID,160,VALID,0.344531,
2009-11-14, 03:24:05,VALID,915.802,VALID,0,VALID,98.0143,VALID,0.107441,VALID,18.9785,VALID,160,VALID,0.339453,
2009-11-14, 03:25:05,VALID,915.776,VALID,0,VALID,98.0219,VALID,0.214882,VALID,18.977,VALID,160,VALID,0.304688,
2009-11-14, 03:26:05,VALID,915.722,VALID,0,VALID,98.0066,VALID,0.107441,VALID,18.9785,VALID,160,VALID,0.654297,
2009-11-14, 03:27:05,VALID,915.701,VALID,0,VALID,98.0219,VALID,0.107441,VALID,18.959,VALID,160,VALID,0.671875,
2009-11-14, 03:28:05,VALID,915.748,VALID,0,VALID,98.0143,VALID,0.107441,VALID,18.959,VALID,160,VALID,0.560547,
2009-11-14, 03:29:05,VALID,915.703,VALID,0,VALID,98.0371,VALID,0.107441,VALID,18.92,VALID,160,VALID,0.493359,
2009-11-14, 03:30:05,VALID,915.713,VALID,0,VALID,98.0143,VALID,0.107441,VALID,18.8991,VALID,160,VALID,0.587109,
2009-11-14, 03:31:05,VALID,915.731,VALID,0,VALID,98.0219,VALID,0.107441,VALID,18.9395,VALID,160,VALID,0.621875,
2009-11-14, 03:32:05,VALID,915.752,VALID,0,VALID,98.0295,VALID,0.107441,VALID,18.92,VALID,160,VALID,0.600391,
2009-11-14, 03:33:05,VALID,915.728,VALID,0,VALID,98.0371,VALID,0.107441,VALID,18.92,VALID,160,VALID,0.807813,
2009-11-14, 03:34:05,VALID,915.749,VALID,0,VALID,98.0371,VALID,0.107441,VALID,18.9186,VALID,160,VALID,0.852734,
2009-11-14, 03:35:05,VALID,915.747,VALID,0,VALID,98.0371,VALID,0.107441,VALID,18.9395,VALID,160,VALID,0.775781,
2009-11-14, 03:36:05,VALID,915.737,VALID,0,VALID,98.0295,VALID,0.214882,VALID,18.959,VALID,160,VALID,0.514844,
2009-11-14, 03:37:05,VALID,915.771,VALID,0,VALID,98.0295,VALID,0.107441,VALID,18.9186,VALID,160,VALID,0.506641,
2009-11-14, 03:38:05,VALID,915.784,VALID,0,VALID,98.0219,VALID,0.214882,VALID,18.92,VALID,160,VALID,0.476172,
2009-11-14, 03:39:05,VALID,915.777,VALID,0,VALID,98.0143,VALID,0.107441,VALID,18.9214,VALID,160,VALID,0.280859,
2009-11-14, 03:40:05,VALID,915.778,VALID,0,VALID,98.0219,VALID,0,VALID,18.9005,VALID,160,VALID,0.388281,
2009-11-14, 03:41:05,VALID,915.794,VALID,0,VALID,98.0371,VALID,0,VALID,18.9214,VALID,160,VALID,0.969922,